Powrót do katalogu

STARLINK-4397

AktywnyŁącznośćSSO
NORAD 53205·PAYLOAD·🇺🇸 United States

Wystrzelony Jul 22, 2022 z Vandenberg Space Force Base

Loading…

Następne Przeloty (najbliższe 24 godziny)

TLE

ŚwieżeSource: CelesTrak SupGP

Epoka: Sep 14, 2026, 21:16 UTC

1 53205C 22084S   26257.88659722 -.00023219  00000+0 -72096-3 0  2572
2 53205  97.2843 313.7000 0001475  91.8919 135.2846 15.33442893    10

Śledź STARLINK-4397 w czasie rzeczywistym z AllMySat

Download on the App Store